This demonstration page uses our WeatherBlox Daily Observations layout. Learn more.

Left ArrowRight Arrow

41.86663, -103.66717

Hourly Observations for February 9, 2019

Temp ( °F °C ) Dew Point ( °F °C ) Humidity (%) Winds ( mph kmh ) Pressure ( in mb ) Visibility ( mi km ) Precip ( " mm )
12:53 am 00:53 Clear 12 -11.1 10 -12.2 92 92 ESE 10 17 30.18 1022 10 16 N/A
1:53 am 01:53 Clear 10 -12.2 8 -13.3 92 92 E 9 15 30.17 1022 10 16 N/A
2:53 am 02:53 Clear 8 -13.3 6 -14.4 92 92 E 8 13 30.17 1022 10 16 N/A
3:53 am 03:53 Clear 5 -15 3 -16.1 91 91 E 8 13 30.19 1022 10 16 N/A
4:53 am 04:53 Clear 5 -15 4 -15.6 95 95 N N/A 30.22 1023 10 16 N/A
5:53 am 05:53 Clear 1 -17.2 -1 -18.3 91 91 ENE 5 7 30.24 1024 10 16 N/A
6:53 am 06:53 Clear N/A -2 -18.9 91 91 N 3 6 30.27 1025 10 16 N/A
7:53 am 07:53 Sunny 3 -16.1 1 -17.2 91 91 W 3 6 30.27 1025 10 16 N/A
8:53 am 08:53 Sunny 7 -13.9 4 -15.6 87 87 NNW 5 7 30.28 1025 10 16 N/A
9:53 am 09:53 Sunny 13 -10.6 9 -12.8 84 84 N N/A 30.28 1025 10 16 N/A
10:53 am 10:53 Sunny 17 -8.3 11 -11.7 77 77 N N/A 30.26 1025 10 16 N/A
11:53 am 11:53 Sunny 21 -6.1 16 -8.9 81 81 SW 3 6 30.24 1024 10 16 N/A
12:53 pm 12:53 Sunny 24 -4.4 17 -8.3 75 75 N N/A 30.20 1023 10 16 N/A
1:53 pm 13:53 Sunny 27 -2.8 20 -6.7 75 75 ENE 16 26 30.18 1022 10 16 N/A
2:53 pm 14:53 Sunny 24 -4.4 18 -7.8 77 77 NE 15 24 30.19 1022 10 16 N/A
3:53 pm 15:53 Sunny 19 -7.2 14 -10 81 81 NE 14 22 30.22 1023 10 16 N/A
4:53 pm 16:53 Sunny 13 -10.6 8 -13.3 81 81 E 13 20 30.26 1025 10 16 N/A
5:53 pm 17:53 Partly Cloudy 9 -12.8 5 -15 84 84 NE 5 7 30.31 1026 10 16 N/A
6:06 pm 18:06 Mostly Cloudy 9 -13 3 -16 78 78 NNE 6 9 30.41 1030 10 16 N/A
6:53 pm 18:53 Cloudy 8 -13.3 4 -15.6 83 83 N 8 13 30.32 1027 10 16 N/A
7:53 pm 19:53 Cloudy 7 -13.9 3 -16.1 84 84 NNE 10 17 30.31 1026 7 11 N/A
8:53 pm 20:53 Cloudy with Light Snow 6 -14.4 2 -16.7 83 83 NNE 13 20 30.28 1026 6 10 N/A
9:53 pm 21:53 Cloudy with Light Snow 5 -15 1 -17.2 83 83 ENE 10 17 30.24 1024 4 6 N/A
10:27 pm 22:27 Cloudy with Light Snow 5 -15 1 -17.2 83 83 N N/A 30.40 1029 5 8 N/A
10:53 pm 22:53 Cloudy with Light Snow 4 -15.6 1 -17.2 88 88 N 6 9 30.24 1024 6 10 N/A
11:53 pm 23:53 Cloudy with Light Snow 4 -15.6 1 -17.2 88 88 NNW 8 13 30.24 1024 4 6 N/A

Powered by AerisWeather